Wetbulb
50.90 50.81 50.72 50.39 50.32 50.07 49.36 49.24 49.20 49.03 49.71 50.40 51.06 51.35 51.66 51.62 51.54 50.38 50.56 51.52 50.86 50.74 51.70 53.53 54.14 55.50 55.71 56.15 56.37 55.85 54.44 53.15 52.00 54.43 52.60 53.13 51.28 52.27 55.08 57.21 59.50 58.22 57.27
49.72 49.75 49.76 49.60 48.79 48.15 48.20 48.18 48.19 47.90 48.72 49.76 50.39 50.51 50.88 50.80 49.89 49.30 49.35 49.41 49.18 49.04 49.17 49.79 50.58 53.56 50.04 51.62 53.00 53.20 53.48 53.44 51.87 53.40 53.49 51.01 51.16 52.85 52.84 52.80 54.61 56.21 55.41
48.82 48.29 48.01 47.66 47.30 46.91 47.12 46.86 47.30 47.95 47.97 47.73 48.18 48.39 48.66 48.34 48.40 47.88 47.75 47.55 47.14 47.30 47.85 47.76 47.88 48.04 46.72 47.06 48.22 48.10 48.82 51.73 51.68 53.42 54.09 53.26 52.13 51.99 52.21 52.29 53.36 54.43 56.81
48.92 47.81 47.16 46.66 46.52 45.74 45.68 45.92 46.63 46.63 45.37 45.33 45.77 46.67 46.75 46.14 46.79 47.31 46.43 45.14 44.93 45.68 45.84 46.56 46.98 46.98 46.76 46.60 48.01 47.02 47.45 46.58 47.28 48.18 49.68 51.45 52.35 53.57 51.46 52.46 52.02 50.40 51.79
48.29 46.96 46.79 46.61 45.78 44.85 44.64 44.21 44.10 43.60 43.27 43.63 43.62 43.80 43.95 44.45 45.52 44.46 44.03 43.58 42.85 42.46 43.84 44.99 45.19 46.78 49.16 49.55 48.81 46.08 44.44 44.65 45.35 45.57 45.65 46.12 48.93 49.51 48.79 50.74 49.95 52.29 51.19
46.53 45.63 45.41 44.49 44.03 42.89 42.42 41.65 40.99 40.61 40.45 40.63 40.66 40.99 40.67 42.58 43.42 44.38 44.50 41.34 41.36 40.93 40.22 40.92 41.59 44.00 44.27 46.69 47.64 48.58 47.86 44.45 43.98 43.71 43.94 43.87 45.56 48.05 50.19 49.33 48.95 48.37 49.48
43.44 43.89 43.22 42.58 41.87 40.66 40.58 39.75 38.60 37.77 37.87 37.47 37.58 38.05 37.84 38.36 40.95 41.47 42.10 39.64 39.13 39.05 38.94 39.64 40.31 42.38 43.90 43.98 45.13 46.28 46.89 47.81 47.98 45.40 42.99 43.12 43.78 46.29 49.07 49.86 48.21 48.36 50.08
41.27 41.21 40.99 39.95 38.96 38.48 37.72 36.95 36.25 35.86 35.25 34.56 34.91 35.74 36.15 37.66 40.91 40.72 41.14 40.38 39.83 39.62 39.82 39.97 40.14 41.32 42.37 42.71 43.11 44.72 44.73 44.75 44.97 46.10 45.98 46.29 46.64 47.19 46.65 49.09 49.34 49.57 48.95
39.06 38.46 38.79 38.17 36.57 35.95 35.10 34.39 33.46 32.76 33.06 33.52 35.01 37.26 36.65 36.92 39.78 40.01 40.30 39.38 38.74 38.77 39.95 40.63 40.99 40.82 41.22 41.20 42.69 42.94 42.86 43.16 45.26 45.15 44.41 43.20 42.01 41.65 42.51 43.00 42.82 45.13 46.66
37.27 36.91 36.81 36.03 34.78 33.13 32.40 31.50 31.51 31.79 32.94 35.19 36.02 37.75 38.40 38.28 39.06 38.94 38.79 38.58 37.78 38.10 39.19 39.98 41.48 41.07 40.73 40.45 40.82 41.30 40.78 41.10 42.26 42.17 42.56 42.88 42.88 43.24 43.62 43.62 43.45 43.20 44.97
36.89 35.41 34.60 33.41 31.88 31.39 30.63 30.59 32.33 34.23 35.49 35.55 35.70 36.40 36.67 36.21 36.52 38.80 39.26 38.26 37.55 37.39 38.03 38.74 40.26 40.69 40.01 39.59 39.74 40.98 40.49 41.47 41.84 42.04 41.94 42.24 42.70 42.90 43.74 44.44 45.40 45.35 44.29
33.71 32.64 31.40 30.44 30.38 31.28 29.54 32.94 32.68 32.07 33.29 33.63 34.15 33.91 35.05 35.72 38.11 38.33 38.64 38.65 38.99 37.69 37.63 39.12 40.17 39.77 39.08 38.96 39.40 39.77 39.09 40.35 40.92 40.93 40.62 40.56 41.34 41.95 42.08 43.58 44.47 44.78 45.29
30.36 28.72 28.03 28.43 29.01 29.70 30.44 31.64 32.07 32.79 32.55 32.56 33.01 33.50 34.14 35.78 37.09 38.90 38.70 38.57 39.28 38.89 39.69 40.15 40.03 39.31 39.12 39.51 39.65 39.26 39.41 40.20 40.08 39.43 39.33 40.16 41.63 43.00 43.58 44.29 45.84 46.89 46.37
27.68 27.52 28.37 28.97 30.93 31.97 32.77 32.61 32.22 31.92 31.92 32.40 32.74 33.22 34.24 35.44 36.64 37.94 38.32 38.81 39.30 39.49 39.95 39.87 40.05 39.69 39.54 39.80 39.79 39.85 40.55 40.68 40.26 40.00 40.46 41.87 42.99 43.12 42.77 43.77 44.04 46.39 47.42
28.38 29.47 30.04 30.29 31.06 31.34 32.27 32.32 32.45 33.47 33.78 32.88 33.38 34.23 33.85 33.80 36.07 37.61 37.26 37.54 38.11 38.57 38.54 37.99 37.31 37.26 36.92 37.45 37.92 38.59 39.35 39.93 39.80 41.94 42.36 41.79 42.28 43.04 43.64 45.30 46.03 46.54 46.72
29.23 29.69 30.00 30.80 31.31 31.33 31.46 32.11 35.09 35.61 36.25 36.24 36.21 36.01 36.84 37.15 37.15 37.16 36.92 36.80 36.57 36.80 36.57 35.74 35.54 36.13 36.08 36.48 36.71 37.28 38.77 40.10 41.40 43.45 43.40 43.16 43.26 44.07 45.59 47.10 47.17 47.37 48.97
29.85 30.06 30.95 31.13 30.86 31.23 31.84 31.85 31.16 33.98 36.38 36.53 35.98 36.02 36.06 36.08 35.87 35.85 35.83 35.82 36.09 36.69 36.11 36.00 35.41 35.90 36.02 36.77 37.15 37.70 38.33 41.01 43.35 45.82 45.94 46.45 47.26 47.89 47.02 48.54 49.15 49.58 48.83
31.37 32.52 31.49 31.55 31.92 31.93 32.18 31.79 31.99 31.62 31.31 32.54 35.00 35.28 35.49 35.02 34.86 35.06 35.70 36.73 39.10 38.56 37.52 36.90 36.84 37.36 37.69 37.69 38.51 39.36 40.48 42.06 43.28 44.64 46.04 47.65 47.58 47.33 47.51 48.36 48.91 48.99 49.81
31.29 31.47 32.12 31.93 31.60 31.91 31.38 31.19 31.24 31.33 31.03 31.08 31.95 33.46 33.60 33.95 34.40 35.71 37.16 39.88 40.02 39.23 39.93 39.65 40.18 40.47 40.60 40.68 40.56 40.87 41.44 41.90 42.87 44.78 46.97 48.52 48.99 48.57 48.32 49.09 48.72 41.76 45.56
32.13 32.75 32.24 31.33 31.15 30.91 30.78 30.35 30.07 29.81 29.72 29.93 30.20 30.47 32.15 31.73 32.38 34.53 36.51 38.24 39.33 41.05 42.18 42.07 42.16 42.56 42.76 43.28 43.52 44.03 44.19 44.69 45.62 46.92 48.47 49.88 49.91 50.14 49.47 49.85 50.33 49.40 50.34
32.90 32.57 31.65 31.72 31.16 30.97 30.58 30.35 30.37 29.95 29.30 28.95 29.41 31.07 30.98 30.40 31.81 32.96 34.44 35.87 37.08 38.68 40.56 42.82 44.85 45.77 46.31 46.92 46.65 46.75 47.31 48.11 49.13 49.93 48.89 48.79 51.11 51.49 52.11 51.67 50.66 51.31 50.09
32.57 32.63 33.00 31.93 32.09 31.02 30.71 31.11 30.55 29.94 29.65 29.05 29.10 30.11 30.36 30.63 30.93 31.77 33.12 34.23 35.80 37.68 39.77 40.81 42.61 45.68 47.46 48.09 49.35 49.55 49.59 50.43 48.16 48.99 49.37 50.18 50.75 52.52 51.50 51.05 50.58 51.01 48.73
32.18 31.70 31.12 30.69 30.96 30.62 30.34 30.48 30.15 29.72 29.33 29.62 29.55 29.26 29.27 29.16 30.08 30.97 31.64 33.37 34.70 36.28 38.13 39.38 41.14 43.96 47.62 49.90 49.67 48.72 47.37 51.35 48.41 49.55 51.43 52.41 51.63 52.10 51.34 50.76 51.23 49.68 47.74
31.25 30.80 29.84 29.12 28.94 28.81 29.07 29.07 29.20 29.48 29.37 29.42 29.65 29.36 29.01 29.10 29.71 30.13 31.07 32.48 33.76 34.93 36.76 38.65 40.27 42.49 45.45 47.56 47.53 46.95 44.82 42.21 52.15 51.07 52.72 53.46 52.34 50.52 52.86 51.35 51.20 47.42 45.65
30.00 29.63 28.87 28.21 27.94 27.56 27.75 27.86 27.69 28.05 28.64 29.09 29.03 29.06 29.29 29.28 29.52 29.97 30.85 31.55 32.43 33.45 35.45 37.15 39.31 41.17 43.29 44.84 42.71 41.77 38.43 35.04 46.48 45.03 54.75 54.72 53.96 53.91 53.33 52.26 48.26 45.95 44.37
28.82 28.68 28.55 27.62 27.35 27.04 26.85 26.83 26.78 27.34 27.64 28.39 28.84 28.73 29.10 29.07 29.31 29.63 30.43 30.88 31.43 32.83 34.56 36.46 38.14 39.99 41.67 43.68 40.88 35.93 35.37 34.99 38.92 37.41 53.32 53.92 53.80 53.57 52.80 51.40 49.39 46.72 44.66
MSLP
1013.21 1013.52 1013.61 1013.79 1013.92 1014.09 1014.17 1014.25 1014.16 1014.24 1014.35 1014.27 1014.09 1013.85 1013.63 1013.38 1013.28 1012.96 1012.62 1012.20 1011.93 1011.64 1011.33 1011.23 1010.94 1010.78 1010.50 1010.30 1010.26 1010.32 1010.52 1010.55 1010.30 1009.16 1009.31 1008.74 1008.64 1008.36 1008.21 1008.15 1008.30 1008.35 1008.39
1013.45 1013.71 1013.90 1014.02 1014.13 1014.30 1014.17 1014.13 1014.40 1014.51 1014.34 1014.30 1014.08 1013.84 1013.70 1013.45 1013.19 1012.86 1012.62 1012.27 1012.08 1011.72 1011.34 1011.10 1010.92 1010.51 1010.49 1010.21 1010.28 1010.11 1009.85 1009.87 1009.85 1009.32 1008.81 1008.71 1008.46 1007.95 1007.89 1007.92 1007.92 1007.60 1007.76
1013.91 1014.26 1014.44 1014.38 1014.32 1014.33 1014.35 1014.36 1014.28 1014.33 1014.35 1014.32 1014.12 1013.94 1013.76 1013.53 1013.22 1012.85 1012.57 1012.47 1012.28 1011.98 1011.64 1011.44 1011.24 1010.86 1010.60 1010.47 1010.35 1010.01 1009.95 1009.79 1009.56 1009.32 1008.79 1008.61 1008.27 1007.94 1007.66 1007.53 1007.53 1007.48 1007.26
1014.13 1014.39 1014.33 1014.28 1014.38 1014.48 1014.45 1014.53 1014.63 1014.77 1014.78 1014.56 1014.37 1014.14 1013.84 1013.47 1013.09 1012.59 1012.30 1012.20 1012.00 1011.64 1011.43 1011.23 1010.86 1010.68 1010.45 1010.24 1009.82 1009.55 1009.42 1009.38 1009.35 1009.18 1008.78 1008.41 1008.11 1007.66 1007.57 1007.50 1007.51 1007.23 1006.96
1014.32 1014.33 1014.42 1014.47 1014.69 1014.95 1015.06 1015.16 1015.22 1015.26 1015.06 1014.74 1014.37 1013.99 1013.61 1013.21 1012.61 1012.26 1012.14 1011.91 1011.72 1011.40 1011.02 1010.65 1010.31 1010.09 1009.81 1009.44 1009.19 1009.00 1009.02 1008.97 1008.89 1008.77 1008.42 1008.10 1007.68 1007.57 1007.60 1007.09 1007.17 1006.78 1006.33
1014.90 1015.27 1015.44 1015.48 1015.61 1015.65 1015.62 1015.52 1015.43 1015.23 1014.90 1014.49 1013.99 1013.49 1013.03 1012.61 1012.22 1012.05 1011.80 1011.55 1011.27 1011.00 1010.61 1010.23 1009.91 1009.53 1009.05 1008.73 1008.46 1008.31 1008.24 1008.15 1008.04 1008.00 1007.71 1007.46 1007.08 1007.06 1006.89 1006.89 1006.94 1006.76 1006.40
1015.97 1016.24 1016.23 1016.16 1016.10 1016.07 1015.89 1015.55 1015.19 1014.84 1014.42 1014.07 1013.55 1013.07 1012.66 1012.18 1011.88 1011.62 1011.43 1011.12 1010.86 1010.52 1010.20 1009.77 1009.29 1008.75 1008.34 1008.03 1007.72 1007.50 1007.28 1007.15 1007.10 1007.10 1007.01 1006.88 1006.76 1006.55 1006.51 1006.26 1006.17 1005.97 1005.45
1016.94 1016.96 1016.77 1016.59 1016.49 1016.22 1015.85 1015.46 1015.14 1014.76 1014.37 1013.89 1013.26 1012.75 1012.32 1011.71 1011.34 1011.19 1011.00 1010.72 1010.34 1009.93 1009.62 1009.25 1008.80 1008.20 1007.82 1007.65 1007.24 1006.74 1006.63 1006.70 1006.59 1006.46 1006.26 1006.16 1006.13 1006.13 1006.15 1005.95 1005.79 1005.25 1004.87
1017.63 1017.51 1017.31 1017.14 1016.87 1016.43 1015.95 1015.58 1015.11 1014.66 1014.04 1013.44 1012.80 1012.12 1011.85 1011.17 1010.98 1010.70 1010.50 1010.14 1009.67 1009.24 1008.82 1008.39 1008.00 1007.60 1007.23 1007.01 1006.68 1006.26 1006.13 1005.94 1005.85 1005.94 1005.91 1005.83 1005.78 1005.72 1005.69 1005.95 1005.60 1005.28 1004.63
1017.98 1017.79 1017.56 1017.29 1016.97 1016.50 1016.00 1015.50 1014.89 1014.48 1013.84 1013.05 1012.35 1011.87 1011.35 1010.64 1010.46 1010.23 1010.03 1009.68 1009.12 1008.63 1008.17 1007.69 1007.32 1007.03 1006.66 1006.44 1006.32 1006.00 1005.67 1005.38 1005.41 1005.34 1005.26 1005.16 1005.12 1004.99 1004.84 1004.94 1004.90 1004.74 1004.44
1018.22 1017.95 1017.52 1017.17 1016.82 1016.25 1015.79 1015.35 1014.75 1014.06 1013.37 1012.69 1011.98 1011.39 1010.97 1010.74 1010.13 1009.85 1009.54 1009.18 1008.60 1008.06 1007.55 1007.00 1006.55 1006.30 1006.10 1005.84 1005.63 1005.42 1005.05 1004.91 1004.77 1004.68 1004.62 1004.50 1004.32 1004.11 1003.91 1003.78 1003.80 1003.82 1003.55
1018.23 1017.80 1017.45 1017.03 1016.56 1015.97 1015.61 1014.87 1014.26 1013.70 1013.09 1012.44 1011.80 1011.05 1010.69 1010.32 1009.94 1009.40 1008.98 1008.57 1008.08 1007.60 1006.95 1006.37 1005.81 1005.48 1005.26 1005.06 1004.84 1004.54 1004.36 1004.35 1004.19 1003.95 1003.81 1003.54 1003.27 1002.99 1002.85 1002.82 1002.73 1002.61 1002.53
1018.08 1017.67 1017.20 1016.71 1016.21 1015.67 1015.13 1014.42 1013.89 1013.41 1012.96 1012.45 1011.96 1011.29 1010.42 1009.95 1009.45 1008.95 1008.44 1007.95 1007.43 1006.89 1006.28 1005.68 1005.22 1004.77 1004.42 1004.20 1003.93 1003.67 1003.57 1003.46 1003.22 1002.95 1002.59 1002.23 1001.95 1001.73 1001.78 1001.84 1001.82 1001.72 1001.66
1018.07 1017.52 1016.98 1016.46 1015.84 1015.28 1014.74 1014.32 1013.92 1013.46 1013.05 1012.62 1012.05 1011.44 1010.68 1009.86 1009.22 1008.63 1007.99 1007.36 1006.71 1006.10 1005.50 1004.91 1004.51 1004.17 1003.82 1003.50 1003.21 1002.91 1002.63 1002.36 1002.13 1001.76 1001.38 1001.04 1000.87 1000.88 1000.84 1000.86 1000.86 1000.51 1000.27
1018.07 1017.54 1016.95 1016.45 1015.88 1015.18 1014.68 1014.34 1013.89 1013.43 1013.09 1012.54 1011.95 1011.38 1010.75 1009.80 1009.06 1008.57 1007.87 1007.00 1006.34 1005.67 1005.04 1004.50 1003.94 1003.47 1003.03 1002.69 1002.37 1002.06 1001.73 1001.41 1001.08 1000.57 1000.18 1000.04 999.96 999.92 999.69 999.64 999.54 999.37 999.24
1018.02 1017.45 1016.99 1016.42 1015.81 1015.24 1014.61 1013.87 1013.51 1013.01 1012.43 1011.94 1011.45 1011.06 1010.33 1009.82 1008.99 1008.12 1007.38 1006.65 1005.86 1005.19 1004.75 1004.20 1003.58 1003.07 1002.56 1002.15 1001.76 1001.30 1000.83 1000.37 999.91 999.48 999.21 999.07 998.89 998.62 998.36 998.28 998.32 998.25 997.74
1018.02 1017.45 1016.90 1016.37 1015.77 1015.17 1014.58 1013.95 1012.97 1012.33 1012.01 1011.52 1011.08 1010.62 1010.20 1009.51 1008.55 1007.69 1006.80 1005.97 1005.23 1004.79 1004.46 1003.70 1003.12 1002.54 1001.96 1001.58 1001.17 1000.64 1000.02 999.61 999.20 998.57 998.18 997.87 997.65 997.46 997.41 997.20 997.15 997.24 997.56
1017.88 1017.37 1016.90 1016.30 1015.77 1015.24 1014.71 1014.21 1013.65 1012.91 1011.98 1011.20 1010.69 1010.30 1009.62 1008.91 1008.03 1007.12 1006.22 1005.49 1004.77 1004.23 1003.81 1003.15 1002.38 1001.69 1001.07 1000.64 1000.22 999.77 999.24 998.71 998.17 997.78 997.32 996.92 996.81 996.92 997.00 996.93 996.98 997.13 997.38
1017.86 1017.40 1016.92 1016.43 1016.01 1015.54 1015.06 1014.44 1013.81 1013.11 1012.46 1011.70 1010.75 1009.92 1009.38 1008.51 1007.64 1006.82 1006.01 1005.59 1004.77 1003.99 1003.11 1002.45 1001.65 1000.81 1000.10 999.68 999.24 998.79 998.40 997.70 997.19 996.81 996.38 996.07 996.01 996.23 996.47 996.59 996.77 997.09 997.35
1018.11 1017.68 1017.15 1016.76 1016.27 1015.84 1015.29 1014.70 1014.08 1013.48 1012.86 1012.17 1011.46 1010.82 1009.90 1008.87 1007.85 1007.03 1006.43 1005.80 1004.99 1004.00 1002.90 1001.91 1000.97 1000.07 999.18 998.59 998.05 997.63 997.16 996.75 996.35 995.97 995.70 995.35 995.33 995.53 995.87 996.03 996.43 996.81 997.20
1018.32 1017.86 1017.51 1017.05 1016.60 1016.14 1015.58 1015.01 1014.40 1013.80 1013.20 1012.52 1011.86 1011.19 1010.60 1009.69 1008.62 1007.84 1007.01 1006.04 1005.30 1004.37 1003.18 1002.02 1000.73 999.64 998.63 997.79 997.16 996.61 996.22 995.85 995.51 995.26 995.18 995.14 995.11 995.11 995.08 995.12 995.99 996.62 997.17
1018.70 1018.21 1017.77 1017.39 1016.94 1016.42 1015.90 1015.29 1014.69 1014.05 1013.38 1012.69 1011.92 1011.15 1010.45 1009.70 1008.97 1008.29 1007.49 1006.49 1005.62 1004.65 1003.58 1002.46 1001.08 999.66 998.49 997.34 996.52 996.06 995.52 995.27 995.15 994.93 994.83 994.88 995.14 995.24 995.52 995.93 996.45 996.93 997.66
1019.20 1018.75 1018.38 1017.94 1017.40 1016.80 1016.20 1015.59 1014.99 1014.31 1013.61 1012.93 1012.22 1011.45 1010.72 1009.97 1009.29 1008.65 1007.94 1007.02 1006.06 1004.86 1003.85 1002.80 1001.64 1000.12 998.80 997.41 996.70 996.14 995.71 995.03 994.79 994.65 994.65 994.81 995.03 995.36 995.74 996.21 996.70 997.41 998.10
1019.61 1019.24 1018.89 1018.47 1017.95 1017.38 1016.76 1016.11 1015.46 1014.72 1014.06 1013.33 1012.62 1011.95 1011.25 1010.45 1009.65 1009.08 1008.32 1007.55 1006.51 1005.33 1004.37 1003.26 1002.19 1000.95 999.73 998.33 997.51 996.69 996.20 995.64 994.55 994.54 994.61 994.86 995.11 995.56 995.99 996.51 997.03 997.85 998.64
1020.16 1019.74 1019.38 1019.06 1018.61 1018.05 1017.39 1016.78 1016.10 1015.36 1014.61 1013.86 1013.17 1012.46 1011.71 1010.89 1009.98 1009.29 1008.70 1008.00 1007.05 1005.97 1004.88 1003.86 1002.77 1001.65 1000.57 999.48 998.74 997.69 996.60 995.87 994.73 994.91 995.02 995.15 995.46 995.90 996.39 996.97 997.63 998.46 999.11
1020.81 1020.40 1019.99 1019.69 1019.29 1018.77 1018.19 1017.51 1016.78 1016.05 1015.31 1014.46 1013.74 1013.00 1012.21 1011.43 1010.60 1009.66 1008.94 1008.23 1007.35 1006.23 1005.42 1004.36 1003.28 1002.19 1001.16 1000.05 999.55 999.04 997.90 997.19 996.44 995.75 995.60 995.79 996.01 996.46 996.87 997.32 997.79 998.39 999.05
Wind_Speed
7 6 7 6 6 5 4 3 2 2 4 5 6 5 5 6 6 6 6 7 6 5 5 4 5 4 3 4 3 4 6 5 7 4 5 5 4 6 6 4 5 5 5
5 5 5 4 4 4 2 1 3 3 3 4 5 5 5 5 6 6 6 7 7 7 6 5 5 3 5 4 3 4 3 3 4 12 3 4 7 6 6 5 6 4 5
4 4 3 3 2 1 3 4 4 5 5 5 5 5 5 5 6 4 4 5 5 6 5 6 6 6 6 4 4 4 3 2 3 4 6 3 5 3 5 4 5 5 5
4 3 4 3 0 3 4 6 6 6 5 6 5 5 4 5 7 5 4 4 6 6 6 6 7 7 6 7 6 5 4 3 3 4 4 4 4 5 3 5 5 4 6
4 1 4 6 7 6 6 6 6 5 4 4 5 5 6 6 7 6 6 8 7 7 8 9 9 11 18 14 7 7 5 5 6 7 7 4 4 3 4 3 5 6 5
7 7 7 7 5 5 5 4 3 4 5 5 6 7 8 7 11 13 12 7 6 7 9 10 10 17 17 21 22 22 17 10 10 8 9 10 12 6 6 4 5 4 7
7 7 7 7 6 6 5 5 6 7 6 7 9 9 10 10 14 13 15 7 6 9 10 10 10 10 14 11 15 18 19 20 17 10 10 11 12 10 8 9 6 6 7
7 7 7 8 8 7 8 7 6 6 9 9 10 9 9 8 12 11 14 9 8 10 10 10 11 12 10 11 11 9 7 9 10 9 10 8 7 6 6 6 7 7 4
7 6 7 7 8 9 9 10 9 8 9 9 9 10 9 10 13 13 11 8 9 10 10 10 10 11 14 14 10 9 9 10 8 11 11 12 14 16 14 6 8 6 5
6 7 7 6 8 10 9 9 7 8 9 8 10 9 11 12 13 14 12 7 9 8 9 10 14 12 15 14 10 10 9 10 7 7 7 9 12 13 18 12 8 9 6
7 8 8 8 8 8 7 7 9 10 9 9 10 9 10 9 11 13 13 8 8 8 8 8 8 12 12 13 12 9 11 9 10 8 8 8 9 9 9 8 8 8 9
8 9 9 9 8 7 8 8 8 8 8 9 9 10 6 7 10 13 14 15 16 9 9 8 10 14 13 14 12 14 13 12 8 7 8 9 9 9 9 9 11 11 12
9 9 8 9 8 7 7 8 8 7 7 7 7 8 10 8 8 15 16 16 17 11 9 12 19 19 16 11 14 16 13 6 7 8 9 9 9 9 10 9 10 13 13
10 10 9 9 10 9 7 6 7 7 7 7 8 8 9 10 9 9 9 10 15 12 14 10 12 15 15 13 12 10 8 8 9 9 9 9 8 7 8 8 9 8 8
11 11 10 7 9 9 7 7 7 7 8 8 8 8 9 11 11 18 18 12 11 12 14 8 7 6 7 7 7 8 8 8 8 9 8 8 8 8 9 8 9 8 10
10 8 8 7 7 7 8 8 8 12 16 18 18 14 9 14 20 22 22 21 20 17 4 6 7 7 7 7 7 8 8 10 8 9 7 8 8 8 8 7 7 8 4
9 9 7 8 7 8 8 8 11 9 14 13 13 14 16 17 20 21 21 20 16 8 4 6 7 7 7 7 7 8 9 7 8 8 7 7 6 5 4 3 3 2 4
9 15 7 7 7 7 7 8 7 8 10 10 9 12 13 18 23 21 20 15 6 3 5 7 7 7 7 7 7 8 8 8 8 7 8 8 8 7 4 3 2 2 3
8 7 8 7 7 9 7 8 7 8 8 9 10 10 14 22 21 15 14 6 8 8 8 8 8 8 8 8 8 8 9 9 8 8 7 7 5 5 5 4 3 4 4
8 14 12 7 7 7 7 7 7 8 8 8 8 9 11 13 10 10 9 8 8 9 9 10 10 9 9 9 8 8 8 8 8 6 5 4 4 5 6 6 7 7 4
7 7 9 7 7 7 7 7 7 7 8 8 8 8 13 10 9 9 9 9 9 10 11 12 12 10 9 8 8 8 7 6 6 5 3 3 3 3 2 5 8 6 7
7 8 8 7 7 8 8 8 8 8 8 8 9 9 15 8 8 9 9 10 10 10 10 11 11 11 11 10 8 7 6 5 4 3 3 2 3 3 4 5 6 7 8
7 8 8 8 8 10 9 8 8 9 9 9 9 9 10 9 9 9 10 10 10 11 11 11 12 12 13 12 11 7 6 4 4 3 2 3 5 4 5 6 8 9 8
8 8 9 9 9 9 9 10 10 11 11 10 10 10 10 10 10 11 10 10 11 11 11 12 12 16 15 14 12 11 7 8 2 3 4 4 4 5 6 7 8 10 8
8 8 9 9 9 9 10 10 11 11 11 10 10 10 10 10 11 11 10 10 10 11 13 13 11 16 19 19 20 22 20 16 7 5 4 6 6 9 9 8 9 9 11
9 9 8 8 9 9 10 10 10 11 11 11 11 11 11 11 11 12 11 12 11 11 13 11 14 19 21 15 19 20 17 16 13 11 6 5 6 5 4 6 12 9 11
Wind_Direction
138 145 133 136 125 113 93 73 44 337 346 341 329 323 320 318 319 324 317 309 317 309 319 328 318 317 308 293 258 219 234 222 240 263 218 238 242 249 259 233 246 252 257
135 128 121 105 93 88 95 73 37 9 8 4 4 11 360 354 340 335 321 321 319 319 316 321 302 324 320 329 317 301 277 250 227 270 249 246 225 237 240 247 253 243 238
113 100 92 93 101 96 14 15 35 46 39 26 25 21 6 350 338 356 25 359 344 330 335 323 306 314 301 290 269 280 277 287 260 264 288 233 250 252 267 254 249 261 250
107 160 183 201 104 28 42 58 53 37 23 9 355 336 322 317 312 275 294 288 273 278 273 269 274 274 268 270 254 247 242 251 256 263 263 251 234 248 219 239 265 237 259
205 254 358 11 33 45 47 38 26 10 339 312 293 287 279 288 289 287 276 275 257 260 254 263 269 264 271 266 263 257 242 245 250 256 265 264 252 234 218 233 232 252 250
38 39 38 48 44 36 23 2 338 308 288 286 300 301 298 286 292 286 291 287 261 266 275 274 270 276 273 271 265 261 252 236 242 246 252 250 256 251 248 224 228 237 265
48 40 33 22 15 3 338 330 332 325 319 314 308 303 297 290 294 293 294 290 275 272 273 274 278 278 280 276 275 269 260 252 244 243 244 247 256 252 255 254 237 226 237
41 28 17 6 351 337 328 325 318 316 310 303 300 293 285 287 300 314 305 294 282 279 276 271 270 277 278 281 280 265 259 257 247 243 246 255 259 284 297 302 302 272 272
21 1 349 339 327 326 320 317 313 308 306 298 292 298 303 297 300 293 298 295 289 284 280 278 277 279 279 273 270 260 259 255 240 232 236 245 260 270 263 273 271 273 269
348 337 324 319 317 313 308 308 304 299 290 295 299 297 293 302 311 304 297 290 287 285 279 273 271 264 269 271 273 267 262 263 258 254 247 246 249 252 253 249 240 244 242
332 321 319 319 311 304 305 304 303 308 300 305 309 310 305 290 292 292 297 295 291 294 290 288 280 269 268 266 258 262 258 267 267 260 257 249 245 248 245 233 233 235 236
322 320 315 308 307 309 297 306 309 309 313 316 317 311 311 303 295 298 297 295 296 290 282 278 275 274 264 263 267 262 251 258 259 252 250 249 243 242 237 238 234 229 236
325 317 314 314 307 296 300 315 319 320 318 316 314 312 312 313 308 310 305 295 289 286 283 281 282 278 277 276 266 263 261 253 251 250 251 249 241 241 242 241 240 240 233
323 326 323 319 322 321 319 317 311 313 314 310 308 306 305 308 310 311 312 309 303 297 290 284 280 278 274 268 273 266 251 244 246 251 251 250 246 238 238 234 239 232 234
334 328 326 318 319 318 318 313 306 296 292 296 294 292 299 303 304 302 301 305 305 295 300 292 285 277 271 265 264 265 261 255 249 252 243 245 240 236 235 230 231 236 242
328 328 323 320 321 319 316 313 302 290 292 287 281 277 293 289 297 300 304 305 303 302 285 296 295 286 279 277 277 276 266 260 252 257 236 237 238 235 237 222 219 229 205
325 323 321 326 319 320 323 325 325 327 319 317 308 310 308 298 308 314 315 313 307 314 280 288 285 282 277 273 270 267 271 263 268 275 238 241 235 243 220 229 201 171 161
331 336 328 325 328 328 327 325 318 319 324 326 326 320 322 326 325 324 316 316 325 294 269 282 278 271 266 260 255 261 268 269 263 262 258 246 231 234 233 217 167 160 190
340 337 339 340 338 339 329 327 326 328 328 325 327 333 338 335 327 320 320 333 316 307 304 295 285 281 274 267 260 261 254 261 261 258 259 257 210 191 201 190 174 208 212
342 342 353 342 338 335 333 332 336 336 331 330 331 332 331 334 337 337 338 332 330 322 312 304 299 292 282 278 270 260 259 258 261 261 247 220 201 188 207 201 194 187 174
340 331 333 338 343 338 337 336 333 334 336 333 329 326 324 320 322 328 330 329 329 326 323 325 318 314 312 304 287 276 270 258 252 258 241 194 199 192 163 101 126 133 126
350 351 348 344 340 345 344 344 342 342 339 339 337 335 337 333 332 333 330 327 327 322 322 321 322 324 317 312 319 316 282 265 271 262 252 184 148 134 126 117 117 120 123
357 355 356 355 353 349 349 348 345 347 346 343 342 343 343 337 335 335 332 328 327 324 327 324 326 328 337 344 342 338 325 302 232 219 175 135 137 127 122 121 130 123 122
360 1 5 1 2 356 355 352 351 351 350 349 348 347 343 337 335 336 335 331 327 324 327 328 330 336 339 348 346 346 348 321 255 162 140 120 119 124 121 109 113 114 108
7 7 11 3 357 354 353 355 354 353 351 350 349 347 343 341 337 340 339 337 329 325 327 326 330 334 341 351 354 347 347 346 29 76 94 103 106 105 103 107 115 114 121
16 8 6 4 1 357 355 352 353 352 351 350 349 347 344 343 341 338 342 340 334 328 330 327 330 336 337 343 350 344 343 351 353 5 57 74 93 99 108 120 137 132 135